Tracking 18980 objects as of 23-Feb-2018
HD Live streaming from Space Station
objects crossing your sky now

COSMOS 1827

Track COSMOS 1827 now!
10-day predictions
COSMOS 1827 is classified as:


NORAD ID: 17582
Int'l Code: 1987-026A
Perigee: 1,401.5 km
Apogee: 1,418.2 km
Inclination: 82.6 °
Period: 113.8 minutes
Semi major axis: 7780 km
RCS: 0.9685 m2 (medium)
Launch date: March 13, 1987
Source: Commonwealth of Independent States (former USSR) (CIS)
Launch site: PLESETSK MISSILE AND SPACE COMPLEX (PKMTR)
aabbcc
Your satellite tracking list
Your tracking list is empty




NASA's NSSDC Master Catalog

Two Line Element Set (TLE):
1 17582U 87026A   18053.77850031 +.00000023 +00000-0 +66999-4 0  9992
2 17582 082.5736 341.3635 0010685 222.5268 165.6157 12.64920121428742
Source of the keplerian elements: AFSPC